When you browse on this site, cookies collect data to enhance your experience and personalize the content and advertising you see.
Visit our Privacy Policy to learn more. By continuing to use the site, you agree to this use of cookies and data.
  • Em Portugal
  • Lista de países
  • Para 7 dias
  • Temperatura da água
  • Mapas de satélite
  • Mapa do tempo
  • Widgets de tempo
  • user-avatar
    Iniciar Sessão

    Previsão horária em Giumri

    Hoje, 16 Julho, Terça-feira

    Tempo Temperatura Precipitação Vento Pressão Humidade
    00:00 +15°C° 0 mm 2 m/s 630 mmHg 79%
    01:00 +15°C° 0 mm 2 m/s 630 mmHg 82%
    02:00 +15°C° 0 mm 2 m/s 630 mmHg 84%
    03:00 +15°C° 0 mm 2 m/s 630 mmHg 87%
    04:00 +15°C° 0 mm 1 m/s 630 mmHg 86%
    05:00 +15°C° 0 mm 1 m/s 630 mmHg 85%
    06:00 +16°C° 0 mm 1 m/s 631 mmHg 83%
    07:00 +18°C° 0 mm 1 m/s 631 mmHg 76%
    08:00 +20°C° 0 mm 1 m/s 632 mmHg 69%
    09:00 +22°C° 0 mm 1 m/s 632 mmHg 61%
    10:00 +23°C° 0 mm 1 m/s 632 mmHg 54%
    11:00 +25°C° 0 mm 1 m/s 633 mmHg 47%
    12:00 +26°C° 0 mm 1 m/s 633 mmHg 40%
    13:00 +26°C° 0 mm 1 m/s 633 mmHg 39%
    14:00 +27°C° 0 mm 1 m/s 633 mmHg 37%
    15:00 +27°C° 0 mm 1 m/s 633 mmHg 36%
    16:00 +26°C° 0.1 mm 3 m/s 632 mmHg 45%
    17:00 +25°C° 0.1 mm 4 m/s 632 mmHg 54%
    18:00 +22°C° 0.1 mm 5 m/s 632 mmHg 63%
    19:00 +21°C° 0 mm 4 m/s 632 mmHg 69%
    20:00 +19°C° 0 mm 4 m/s 631 mmHg 74%
    21:00 +17°C° 0 mm 3 m/s 631 mmHg 80%
    22:00 +16°C° 0 mm 3 m/s 631 mmHg 81%
    23:00 +16°C° 0 mm 2 m/s 631 mmHg 81%

    Amanhã, 17 Julho, Quarta-feira

    Tempo Temperatura Precipitação Vento Pressão Humidade
    00:00 +15°C° 0 mm 2 m/s 631 mmHg 82%
    01:00 +15°C° 0 mm 2 m/s 631 mmHg 82%
    02:00 +15°C° 0 mm 2 m/s 631 mmHg 82%
    03:00 +14°C° 0 mm 2 m/s 630 mmHg 82%
    04:00 +15°C° 0 mm 2 m/s 630 mmHg 80%
    05:00 +15°C° 0 mm 1 m/s 631 mmHg 79%
    06:00 +16°C° 0 mm 1 m/s 631 mmHg 77%
    07:00 +19°C° 0 mm 1 m/s 631 mmHg 71%
    08:00 +21°C° 0 mm 1 m/s 632 mmHg 65%
    09:00 +24°C° 0 mm 1 m/s 632 mmHg 58%
    10:00 +25°C° 0.2 mm 2 m/s 632 mmHg 54%
    11:00 +26°C° 0.2 mm 2 m/s 632 mmHg 51%
    12:00 +27°C° 0.2 mm 2 m/s 633 mmHg 47%
    13:00 +28°C° 0.2 mm 3 m/s 633 mmHg 46%
    14:00 +28°C° 0.2 mm 3 m/s 632 mmHg 44%
    15:00 +29°C° 0.2 mm 3 m/s 632 mmHg 43%
    16:00 +28°C° 0.3 mm 3 m/s 632 mmHg 48%
    17:00 +27°C° 0.3 mm 3 m/s 632 mmHg 53%
    18:00 +26°C° 0.3 mm 3 m/s 631 mmHg 58%
    19:00 +24°C° 0 mm 3 m/s 631 mmHg 64%
    20:00 +21°C° 0 mm 3 m/s 631 mmHg 70%
    21:00 +18°C° 0 mm 3 m/s 631 mmHg 76%
    22:00 +18°C° 0 mm 3 m/s 631 mmHg 77%
    23:00 +18°C° 0 mm 3 m/s 631 mmHg 77%

    Depois de amanhã, 18 Julho, Quinta-feira

    Tempo Temperatura Precipitação Vento Pressão Humidade
    00:00 +17°C° 0 mm 2 m/s 630 mmHg 78%
    01:00 +17°C° 0 mm 2 m/s 630 mmHg 79%
    02:00 +17°C° 0 mm 2 m/s 630 mmHg 81%
    03:00 +16°C° 0 mm 2 m/s 630 mmHg 83%
    04:00 +17°C° 0 mm 2 m/s 630 mmHg 83%
    05:00 +17°C° 0 mm 2 m/s 631 mmHg 83%
    06:00 +18°C° 0 mm 2 m/s 631 mmHg 84%
    07:00 +20°C° 0 mm 2 m/s 631 mmHg 76%
    08:00 +23°C° 0 mm 2 m/s 632 mmHg 68%
    09:00 +25°C° 0 mm 2 m/s 633 mmHg 60%
    10:00 +26°C° 0.1 mm 2 m/s 633 mmHg 54%
    11:00 +28°C° 0.1 mm 3 m/s 633 mmHg 47%
    12:00 +29°C° 0.1 mm 3 m/s 633 mmHg 40%
    13:00 +29°C° 0.1 mm 3 m/s 633 mmHg 40%
    14:00 +30°C° 0.1 mm 3 m/s 633 mmHg 39%
    15:00 +30°C° 0.1 mm 3 m/s 633 mmHg 38%
    16:00 +29°C° 0.1 mm 3 m/s 633 mmHg 45%
    17:00 +28°C° 0.1 mm 3 m/s 633 mmHg 52%
    18:00 +27°C° 0.1 mm 3 m/s 633 mmHg 59%
    19:00 +25°C° 0.1 mm 3 m/s 633 mmHg 65%
    20:00 +21°C° 0.1 mm 2 m/s 633 mmHg 71%
    21:00 +19°C° 0.1 mm 2 m/s 633 mmHg 77%
    22:00 +19°C° 0 mm 2 m/s 633 mmHg 78%
    23:00 +18°C° 0 mm 2 m/s 633 mmHg 78%

    19 Julho, Sexta-feira

    Tempo Temperatura Precipitação Vento Pressão Humidade
    00:00 +17°C° 0 mm 2 m/s 632 mmHg 79%
    01:00 +17°C° 0 mm 2 m/s 632 mmHg 81%
    02:00 +16°C° 0 mm 2 m/s 632 mmHg 83%
    03:00 +16°C° 0 mm 2 m/s 632 mmHg 86%
    04:00 +16°C° 0 mm 2 m/s 633 mmHg 85%
    05:00 +17°C° 0 mm 2 m/s 633 mmHg 85%
    06:00 +17°C° 0 mm 2 m/s 633 mmHg 84%
    07:00 +19°C° 0 mm 2 m/s 634 mmHg 78%
    08:00 +21°C° 0 mm 2 m/s 634 mmHg 72%
    09:00 +24°C° 0 mm 2 m/s 635 mmHg 66%
    10:00 +25°C° 0 mm 2 m/s 635 mmHg 60%
    11:00 +26°C° 0 mm 2 m/s 635 mmHg 54%
    12:00 +28°C° 0 mm 2 m/s 636 mmHg 48%
    13:00 +28°C° 0.2 mm 3 m/s 636 mmHg 48%
    14:00 +28°C° 0.2 mm 3 m/s 636 mmHg 48%
    15:00 +29°C° 0.2 mm 4 m/s 635 mmHg 48%
    16:00 +28°C° 0.2 mm 4 m/s 635 mmHg 53%
    17:00 +26°C° 0.2 mm 4 m/s 635 mmHg 59%
    18:00 +25°C° 0.2 mm 5 m/s 634 mmHg 65%
    19:00 +22°C° 0 mm 4 m/s 635 mmHg 71%
    20:00 +21°C° 0 mm 4 m/s 635 mmHg 77%
    21:00 +19°C° 0 mm 3 m/s 635 mmHg 83%
    22:00 +18°C° 0 mm 3 m/s 635 mmHg 84%
    23:00 +18°C° 0 mm 3 m/s 635 mmHg 84%

    20 Julho, Sábado

    Tempo Temperatura Precipitação Vento Pressão Humidade
    00:00 +17°C° 0 mm 2 m/s 635 mmHg 85%
    01:00 +17°C° 0 mm 2 m/s 635 mmHg 86%
    02:00 +17°C° 0 mm 2 m/s 635 mmHg 87%
    03:00 +16°C° 0 mm 2 m/s 635 mmHg 88%
    04:00 +17°C° 0 mm 2 m/s 635 mmHg 87%
    05:00 +17°C° 0 mm 2 m/s 636 mmHg 87%
    06:00 +17°C° 0 mm 2 m/s 636 mmHg 86%
    07:00 +19°C° 0 mm 2 m/s 636 mmHg 79%
    08:00 +21°C° 0 mm 3 m/s 637 mmHg 73%
    09:00 +24°C° 0 mm 3 m/s 637 mmHg 66%
    10:00 +25°C° 0 mm 3 m/s 638 mmHg 63%
    11:00 +27°C° 0 mm 3 m/s 638 mmHg 60%
    12:00 +28°C° 0 mm 4 m/s 638 mmHg 57%
    13:00 +28°C° 0 mm 4 m/s 638 mmHg 57%
    14:00 +28°C° 0 mm 4 m/s 637 mmHg 57%
    15:00 +28°C° 0 mm 4 m/s 637 mmHg 57%
    16:00 +27°C° 0 mm 4 m/s 637 mmHg 61%
    17:00 +26°C° 0 mm 5 m/s 637 mmHg 65%
    18:00 +25°C° 0 mm 5 m/s 636 mmHg 70%
    19:00 +23°C° 0 mm 4 m/s 637 mmHg 74%
    20:00 +21°C° 0 mm 4 m/s 637 mmHg 79%
    21:00 +20°C° 0 mm 3 m/s 637 mmHg 83%
    22:00 +19°C° 0 mm 3 m/s 637 mmHg 83%
    23:00 +19°C° 0 mm 3 m/s 637 mmHg 83%

    21 Julho, Domingo

    Tempo Temperatura Precipitação Vento Pressão Humidade
    00:00 +18°C° 0 mm 3 m/s 637 mmHg 83%
    01:00 +18°C° 0 mm 3 m/s 636 mmHg 83%
    02:00 +17°C° 0 mm 3 m/s 636 mmHg 83%
    03:00 +17°C° 0 mm 3 m/s 636 mmHg 82%
    04:00 +17°C° 0 mm 3 m/s 636 mmHg 82%
    05:00 +17°C° 0 mm 2 m/s 636 mmHg 81%
    06:00 +17°C° 0 mm 2 m/s 636 mmHg 81%
    07:00 +19°C° 0 mm 3 m/s 637 mmHg 75%
    08:00 +22°C° 0 mm 3 m/s 637 mmHg 68%
    09:00 +25°C° 0 mm 3 m/s 637 mmHg 62%
    10:00 +26°C° 0 mm 3 m/s 638 mmHg 58%
    11:00 +27°C° 0 mm 3 m/s 638 mmHg 55%
    12:00 +29°C° 0 mm 3 m/s 638 mmHg 52%
    13:00 +29°C° 0 mm 4 m/s 638 mmHg 52%
    14:00 +29°C° 0 mm 4 m/s 638 mmHg 52%
    15:00 +30°C° 0 mm 4 m/s 637 mmHg 53%
    16:00 +29°C° 0 mm 4 m/s 637 mmHg 57%
    17:00 +28°C° 0 mm 4 m/s 637 mmHg 61%
    18:00 +27°C° 0 mm 4 m/s 636 mmHg 65%
    19:00 +25°C° 0 mm 4 m/s 636 mmHg 69%
    20:00 +22°C° 0 mm 4 m/s 636 mmHg 73%
    21:00 +20°C° 0 mm 3 m/s 636 mmHg 77%
    22:00 +19°C° 0 mm 3 m/s 636 mmHg 77%
    23:00 +19°C° 0 mm 3 m/s 636 mmHg 78%
    Mostrar mais